Regional Weather Roundup
Issued by NWS Goodland, KS

Home | Current Version | Previous Version | Text Only | Print | Product List | Glossary On
Versions: 1 2 3 4 5 6 7 8 9 10 11 12 13 14 15 16 17 18 19 20 21 22 23 24 25 26 27 28 29 30 31 32 33 34 35 36 37 38 39 40 41 42 43 44 45 46 47 48 49 50
000
ASUS43 KGLD 012308
RWRGLD

GOODLAND FORECAST AREA HOURLY WEATHER ROUNDUP
NATIONAL WEATHER SERVICE GOODLAND KS
500 PM MDT MON SEP 01 2014

...OFFICIAL OBSERVATIONS...

CITY           SKY/WX    TMP DP  RH WIND       PRES   REMARKS
GOODLAND KS    SUNNY     81  45  28 E7        29.94F
HILL CITY KS   SUNNY     81  55  40 E6        29.92S
IMPERIAL NEB   SUNNY     78  48  34 S6        29.92F
MCCOOK NEB     SUNNY     77  52  41 E6        29.92F
AKRON CO       SUNNY     78  39  24 MISG      29.97S
BURLINGTON CO  MOSUNNY   79  43  27 SE10G16   29.96S
LIMON CO       SUNNY     78  40  25 S10       30.01S
$$

...UNOFFICIAL OBSERVATIONS...

CITY           SKY/WX    TMP DP  RH WIND       PRES   REMARKS
COLBY KS       SUNNY     81  52  36 E5        29.94F
GOVE KS          N/A     81  32  17 CALM        N/A
NORTON KS      SUNNY     79  43  27 E7        29.92S
SHARON SPRINGS   N/A     83  50  31 CALM        N/A
WAKEENEY KS      N/A     82  49  31 MISG        N/A
KIT CARSON CO    N/A     84  46  26 N5G12       N/A
YUMA CO          N/A     81  44  26 W5          N/A
$$



USA.gov is the U.S. government's official web portal to all federal, state and local government web resources and services.